Back to catalog

CTC-0

AliveScienceVLEO
NORAD 62401·PAYLOAD·🇺🇸 United States

Launched Dec 21, 2024 from Vandenberg Space Force Base

Loading…

Next Passes (next 24 hours)

TLE

FreshSource: Space-Track

Epoch: Sep 13, 2026, 22:47 UTC

1 62401U 24247AA  26256.94981115  .00017703  00000-0  40685-3 0  9995
2 62401  44.9705 135.3389 0004179 129.7030 230.4228 15.42479248 96911

Track CTC-0 in real time with AllMySat

Download on the App Store